AVA34 SKBO-MGGT

Flight info

Callsign AVA34
Flight time 2h 47m
Altitude 36000
Route DCT URODU UL423 ISEBA/N0446F380 UL423 NOROS DCT ILOTI DCT CAT UG436 KAPAN DCT AUR DCT
Aircraft A320/M-SDE3FGHIRWY/LB1

Departure

Time 2026-04-22 15:10
Airport El Dorado International Airport (SKBO)

Arrival

Time 2026-04-22 17:57
Airport La Aurora International Airport (MGGT)
Time Latitude Longitude Altitude Speed Heading
2026-04-22 14:34 4.70055 -74.14224 8367 ft 0 kts 217°
2026-04-22 14:57 4.70066 -74.14215 8366 ft 4 kts 219°
2026-04-22 14:57 4.70080 -74.14204 8366 ft 4 kts 222°
2026-04-22 14:57 4.70099 -74.14185 8366 ft 4 kts 231°
2026-04-22 14:58 4.70113 -74.14163 8366 ft 4 kts 260°
2026-04-22 14:58 4.70112 -74.14147 8366 ft 0 kts 307°
2026-04-22 15:02 4.70119 -74.14156 8383 ft 6 kts 307°
2026-04-22 15:03 4.70167 -74.14209 8366 ft 12 kts 331°
2026-04-22 15:03 4.70248 -74.14215 8366 ft 12 kts 330°
2026-04-22 15:03 4.70308 -74.14286 8366 ft 17 kts 306°
2026-04-22 15:03 4.70392 -74.14329 8366 ft 14 kts 12°
2026-04-22 15:04 4.70466 -74.14380 8366 ft 14 kts 306°
2026-04-22 15:04 4.70526 -74.14460 8366 ft 15 kts 307°
2026-04-22 15:04 4.70588 -74.14541 8367 ft 15 kts 307°
2026-04-22 15:04 4.70651 -74.14625 8367 ft 15 kts 307°
2026-04-22 15:05 4.70715 -74.14709 8367 ft 16 kts 307°
2026-04-22 15:05 4.70782 -74.14798 8366 ft 16 kts 307°
2026-04-22 15:05 4.70851 -74.14888 8366 ft 16 kts 307°
2026-04-22 15:05 4.70920 -74.14981 8366 ft 17 kts 307°
2026-04-22 15:06 4.70992 -74.15075 8366 ft 17 kts 307°
2026-04-22 15:06 4.71064 -74.15171 8366 ft 16 kts 307°
2026-04-22 15:06 4.71098 -74.15215 8367 ft 8 kts 307°
2026-04-22 15:06 4.71133 -74.15262 8367 ft 9 kts 307°
2026-04-22 15:07 4.71183 -74.15295 8366 ft 9 kts 347°
2026-04-22 15:07 4.71228 -74.15290 8367 ft 0 kts 25°
2026-04-22 15:08 4.71259 -74.15264 8367 ft 13 kts 46°
2026-04-22 15:08 4.71314 -74.15179 8365 ft 10 kts 93°
2026-04-22 15:09 4.71296 -74.15149 8365 ft 1 kts 127°
2026-04-22 15:09 4.71232 -74.15065 8365 ft 45 kts 127°
2026-04-22 15:09 4.70897 -74.14619 8365 ft 112 kts 127°
2026-04-22 15:09 4.70311 -74.13847 8365 ft 164 kts 127°
2026-04-22 15:10 4.69532 -74.12822 8402 ft 203 kts 129°
2026-04-22 15:10 4.68624 -74.11710 9089 ft 208 kts 130°
2026-04-22 15:10 4.67736 -74.10569 9823 ft 212 kts 126°
2026-04-22 15:10 4.66772 -74.09404 10319 ft 227 kts 141°
2026-04-22 15:11 4.65245 -74.08848 10589 ft 248 kts 180°
2026-04-22 15:11 4.63551 -74.09366 10770 ft 269 kts 218°
2026-04-22 15:11 4.62425 -74.10865 11251 ft 276 kts 250°
2026-04-22 15:11 4.62001 -74.12754 11880 ft 280 kts 263°
2026-04-22 15:12 4.61856 -74.14683 12538 ft 282 kts 267°
2026-04-22 15:12 4.61756 -74.16654 13209 ft 285 kts 266°
2026-04-22 15:12 4.61609 -74.18646 13887 ft 287 kts 263°
2026-04-22 15:12 4.61388 -74.20643 14519 ft 289 kts 262°
2026-04-22 15:13 4.61106 -74.22648 15090 ft 292 kts 260°
2026-04-22 15:13 4.60782 -74.24664 15650 ft 294 kts 259°
2026-04-22 15:13 4.60475 -74.26704 15879 ft 297 kts 266°
2026-04-22 15:13 4.60816 -74.28758 15939 ft 311 kts 288°
2026-04-22 15:14 4.61583 -74.30882 15935 ft 336 kts 289°
2026-04-22 15:14 4.62421 -74.33160 15922 ft 357 kts 289°
2026-04-22 15:14 4.63296 -74.35519 15914 ft 364 kts 289°
2026-04-22 15:14 4.64183 -74.37899 15885 ft 365 kts 289°
2026-04-22 15:15 4.65069 -74.40287 15868 ft 365 kts 289°
2026-04-22 15:15 4.65948 -74.42674 15853 ft 365 kts 289°
2026-04-22 15:15 4.66824 -74.45065 15838 ft 365 kts 289°
2026-04-22 15:15 4.67696 -74.47457 15820 ft 365 kts 289°
2026-04-22 15:16 4.68567 -74.49850 15802 ft 365 kts 289°
2026-04-22 15:16 4.69437 -74.52240 15750 ft 365 kts 289°
2026-04-22 15:16 4.70310 -74.54633 15762 ft 365 kts 289°
2026-04-22 15:16 4.71185 -74.57022 15763 ft 365 kts 289°
2026-04-22 15:17 4.72064 -74.59412 15756 ft 365 kts 289°
2026-04-22 15:17 4.72942 -74.61803 15755 ft 365 kts 289°
2026-04-22 15:17 4.73818 -74.64193 15741 ft 365 kts 289°
2026-04-22 15:17 4.74692 -74.66582 15741 ft 365 kts 289°
2026-04-22 15:18 4.75565 -74.68970 15736 ft 365 kts 289°
2026-04-22 15:18 4.76435 -74.71359 15730 ft 365 kts 289°
2026-04-22 15:18 4.77303 -74.73750 15734 ft 365 kts 289°
2026-04-22 15:18 4.78179 -74.76136 15732 ft 365 kts 291°
2026-04-22 15:19 4.79282 -74.78456 16083 ft 371 kts 296°
2026-04-22 15:19 4.80554 -74.80720 16683 ft 374 kts 299°
2026-04-22 15:19 4.81922 -74.82954 17257 ft 377 kts 300°
2026-04-22 15:19 4.83330 -74.85180 17808 ft 380 kts 301°
2026-04-22 15:20 4.84271 -74.86665 18166 ft 382 kts 301°
2026-04-22 15:20 4.86166 -74.89697 18835 ft 385 kts 300°
2026-04-22 15:20 4.87556 -74.91968 19303 ft 387 kts 300°
2026-04-22 15:20 4.88973 -74.94316 19775 ft 390 kts 299°
2026-04-22 15:21 4.90373 -74.96652 20249 ft 392 kts 299°
2026-04-22 15:21 4.91756 -74.98970 20689 ft 394 kts 299°
2026-04-22 15:21 4.93167 -75.01335 21138 ft 396 kts 299°
2026-04-22 15:21 4.94587 -75.03709 21576 ft 398 kts 300°
2026-04-22 15:22 4.96017 -75.06096 21986 ft 400 kts 300°
2026-04-22 15:22 4.97457 -75.08499 22409 ft 404 kts 300°
2026-04-22 15:22 4.98911 -75.10924 22807 ft 407 kts 300°
2026-04-22 15:22 5.00374 -75.13361 23247 ft 409 kts 300°
2026-04-22 15:23 5.01847 -75.15813 23690 ft 412 kts 300°
2026-04-22 15:23 5.03328 -75.18282 24064 ft 414 kts 300°
2026-04-22 15:23 5.04837 -75.20793 24431 ft 416 kts 300°
2026-04-22 15:23 5.06315 -75.23258 24800 ft 418 kts 300°
2026-04-22 15:24 5.07820 -75.25763 25139 ft 420 kts 300°
2026-04-22 15:24 5.09333 -75.28279 25484 ft 423 kts 300°
2026-04-22 15:24 5.10856 -75.30811 25820 ft 425 kts 300°
2026-04-22 15:24 5.12383 -75.33351 26138 ft 427 kts 300°
2026-04-22 15:25 5.13924 -75.35918 26477 ft 429 kts 300°
2026-04-22 15:25 5.15460 -75.38488 26808 ft 431 kts 300°
2026-04-22 15:25 5.17009 -75.41082 27104 ft 434 kts 300°
2026-04-22 15:25 5.18564 -75.43682 27403 ft 436 kts 300°
2026-04-22 15:26 5.20131 -75.46295 27691 ft 438 kts 300°
2026-04-22 15:26 5.21712 -75.48925 27977 ft 441 kts 300°
2026-04-22 15:26 5.23297 -75.51562 28248 ft 443 kts 300°
2026-04-22 15:26 5.24890 -75.54217 28518 ft 446 kts 300°
2026-04-22 15:27 5.26491 -75.56890 28802 ft 448 kts 300°
2026-04-22 15:27 5.28095 -75.59572 29061 ft 450 kts 300°
2026-04-22 15:27 5.29708 -75.62274 29329 ft 452 kts 300°
2026-04-22 15:27 5.31330 -75.64991 29563 ft 455 kts 300°
2026-04-22 15:28 5.32964 -75.67721 29818 ft 457 kts 300°
2026-04-22 15:28 5.34607 -75.70465 30088 ft 460 kts 300°
2026-04-22 15:28 5.36259 -75.73225 30339 ft 462 kts 300°
2026-04-22 15:28 5.37915 -75.75992 30566 ft 464 kts 300°
2026-04-22 15:29 5.39565 -75.78745 30779 ft 466 kts 300°
2026-04-22 15:29 5.41235 -75.81537 30994 ft 468 kts 300°
2026-04-22 15:29 5.42910 -75.84338 31210 ft 469 kts 300°
2026-04-22 15:30 5.45731 -75.89061 31580 ft 472 kts 300°
2026-04-22 15:30 5.47967 -75.92798 32018 ft 471 kts 300°
2026-04-22 15:30 5.49649 -75.95611 32346 ft 470 kts 300°
2026-04-22 15:30 5.51328 -75.98417 32665 ft 469 kts 301°
2026-04-22 15:31 5.53015 -76.01232 32975 ft 468 kts 301°
2026-04-22 15:31 5.54692 -76.04028 33314 ft 467 kts 301°
2026-04-22 15:31 5.56364 -76.06820 33648 ft 466 kts 301°
2026-04-22 15:31 5.58030 -76.09608 33983 ft 465 kts 300°
2026-04-22 15:32 5.59691 -76.12398 34283 ft 464 kts 300°
2026-04-22 15:32 5.61345 -76.15179 34548 ft 464 kts 300°
2026-04-22 15:32 5.63000 -76.17959 34830 ft 463 kts 300°
2026-04-22 15:32 5.64661 -76.20739 35073 ft 464 kts 300°
2026-04-22 15:33 5.66322 -76.23517 35273 ft 464 kts 300°
2026-04-22 15:33 5.67981 -76.26291 35492 ft 464 kts 300°
2026-04-22 15:33 5.69649 -76.29078 35722 ft 464 kts 300°
2026-04-22 15:33 5.71293 -76.31827 35925 ft 464 kts 300°
2026-04-22 15:34 5.72954 -76.34610 36062 ft 465 kts 300°
2026-04-22 15:34 5.76253 -76.40148 36068 ft 460 kts 300°
2026-04-22 15:35 5.78981 -76.44724 36055 ft 459 kts 300°
2026-04-22 15:35 5.82814 -76.51145 36038 ft 458 kts 300°
2026-04-22 15:36 5.86075 -76.56623 36032 ft 459 kts 300°
2026-04-22 15:36 5.89369 -76.62158 36038 ft 459 kts 300°
2026-04-22 15:37 5.92625 -76.67620 36038 ft 458 kts 300°
2026-04-22 15:37 5.95900 -76.73111 36050 ft 458 kts 300°
2026-04-22 15:38 5.99174 -76.78608 36061 ft 458 kts 300°
2026-04-22 15:38 6.04075 -76.86854 36058 ft 458 kts 300°
2026-04-22 15:39 6.06821 -76.91465 36048 ft 459 kts 300°
2026-04-22 15:39 6.10099 -76.96970 36043 ft 459 kts 300°
2026-04-22 15:40 6.13378 -77.02486 36045 ft 460 kts 300°
2026-04-22 15:40 6.16656 -77.08000 36034 ft 460 kts 300°
2026-04-22 15:41 6.19925 -77.13491 36023 ft 460 kts 300°
2026-04-22 15:41 6.23208 -77.19015 36016 ft 460 kts 300°
2026-04-22 15:42 6.26490 -77.24535 36009 ft 460 kts 300°
2026-04-22 15:42 6.29772 -77.30065 36004 ft 460 kts 300°
2026-04-22 15:43 6.33052 -77.35583 36041 ft 459 kts 300°
2026-04-22 15:43 6.36325 -77.41108 36039 ft 458 kts 300°
2026-04-22 15:44 6.39582 -77.46617 36039 ft 458 kts 300°
2026-04-22 15:44 6.42841 -77.52118 36031 ft 458 kts 300°
2026-04-22 15:45 6.46083 -77.57580 36029 ft 457 kts 300°
2026-04-22 15:45 6.49345 -77.63078 36034 ft 457 kts 300°
2026-04-22 15:46 6.52603 -77.68577 36023 ft 456 kts 300°
2026-04-22 15:46 6.55855 -77.74061 36020 ft 456 kts 300°
2026-04-22 15:47 6.59100 -77.79536 36021 ft 456 kts 300°
2026-04-22 15:47 6.62348 -77.85011 36011 ft 455 kts 300°
2026-04-22 15:48 6.65593 -77.90494 36008 ft 455 kts 300°
2026-04-22 15:48 6.68805 -77.95939 36008 ft 456 kts 300°
2026-04-22 15:49 6.72045 -78.01417 36017 ft 455 kts 300°
2026-04-22 15:49 6.75278 -78.06892 36019 ft 454 kts 300°
2026-04-22 15:50 6.78513 -78.12352 36015 ft 454 kts 300°
2026-04-22 15:50 6.81738 -78.17811 36012 ft 453 kts 300°
2026-04-22 15:51 6.84961 -78.23268 36013 ft 453 kts 300°
2026-04-22 15:51 6.88174 -78.28721 36011 ft 453 kts 300°
2026-04-22 15:52 6.91390 -78.34167 36008 ft 452 kts 300°
2026-04-22 15:52 6.94607 -78.39610 36005 ft 452 kts 300°
2026-04-22 15:53 6.97826 -78.45060 36003 ft 453 kts 300°
2026-04-22 15:53 7.01042 -78.50505 36000 ft 452 kts 300°
2026-04-22 15:54 7.04254 -78.55953 36001 ft 453 kts 300°
2026-04-22 15:54 7.07463 -78.61407 36002 ft 453 kts 300°
2026-04-22 15:55 7.10680 -78.66869 36000 ft 453 kts 300°
2026-04-22 15:55 7.13874 -78.72283 36003 ft 453 kts 300°
2026-04-22 15:56 7.17080 -78.77748 36000 ft 453 kts 300°
2026-04-22 15:56 7.20303 -78.83241 35996 ft 453 kts 300°
2026-04-22 15:57 7.23498 -78.88672 36000 ft 453 kts 300°
2026-04-22 15:57 7.26714 -78.94138 36001 ft 453 kts 300°
2026-04-22 15:58 7.29914 -78.99606 36004 ft 453 kts 300°
2026-04-22 15:58 7.33115 -79.05075 36001 ft 453 kts 300°
2026-04-22 15:59 7.36324 -79.10545 36005 ft 453 kts 300°
2026-04-22 15:59 7.39527 -79.16006 36007 ft 453 kts 300°
2026-04-22 16:00 7.42725 -79.21466 36007 ft 452 kts 300°
2026-04-22 16:00 7.45918 -79.26931 36011 ft 452 kts 300°
2026-04-22 16:01 7.49112 -79.32387 36013 ft 452 kts 300°
2026-04-22 16:01 7.52313 -79.37841 36013 ft 451 kts 300°
2026-04-22 16:02 7.55484 -79.43247 36013 ft 451 kts 300°
2026-04-22 16:02 7.58671 -79.48696 36012 ft 450 kts 300°
2026-04-22 16:03 7.61854 -79.54142 36013 ft 450 kts 300°
2026-04-22 16:03 7.65031 -79.59587 36014 ft 450 kts 300°
2026-04-22 16:04 7.68212 -79.65032 36014 ft 450 kts 300°
2026-04-22 16:04 7.71395 -79.70473 36014 ft 450 kts 300°
2026-04-22 16:05 7.74572 -79.75910 36011 ft 450 kts 300°
2026-04-22 16:05 7.77729 -79.81321 36013 ft 450 kts 300°
2026-04-22 16:06 7.80906 -79.86764 36016 ft 450 kts 300°
2026-04-22 16:06 7.84080 -79.92205 36016 ft 450 kts 300°
2026-04-22 16:07 7.87253 -79.97644 36018 ft 449 kts 300°
2026-04-22 16:07 7.90419 -80.03079 36019 ft 449 kts 300°
2026-04-22 16:08 7.93583 -80.08509 36013 ft 449 kts 300°
2026-04-22 16:08 7.96749 -80.13945 36010 ft 450 kts 300°
2026-04-22 16:09 7.99920 -80.19393 36006 ft 450 kts 300°
2026-04-22 16:09 8.03096 -80.24847 36004 ft 451 kts 300°
2026-04-22 16:10 8.06262 -80.30278 36003 ft 451 kts 299°
2026-04-22 16:10 8.09433 -80.35742 35999 ft 451 kts 299°
2026-04-22 16:11 8.12609 -80.41216 36003 ft 452 kts 299°
2026-04-22 16:11 8.15784 -80.46685 36005 ft 452 kts 299°
2026-04-22 16:12 8.18959 -80.52156 36007 ft 452 kts 299°
2026-04-22 16:12 8.22142 -80.57628 36003 ft 452 kts 299°
2026-04-22 16:13 8.25325 -80.63107 36011 ft 452 kts 299°
2026-04-22 16:13 8.28497 -80.68578 36018 ft 450 kts 299°
2026-04-22 16:14 8.31657 -80.74026 36019 ft 449 kts 300°
2026-04-22 16:14 8.34809 -80.79466 36023 ft 449 kts 300°
2026-04-22 16:15 8.37959 -80.84910 36019 ft 448 kts 299°
2026-04-22 16:15 8.41108 -80.90345 36036 ft 448 kts 299°
2026-04-22 16:16 8.44259 -80.95774 36039 ft 448 kts 299°
2026-04-22 16:16 8.47389 -81.01177 36037 ft 448 kts 299°
2026-04-22 16:17 8.50533 -81.06611 36037 ft 448 kts 299°
2026-04-22 16:17 8.53678 -81.12052 36036 ft 448 kts 299°
2026-04-22 16:18 8.56820 -81.17498 36042 ft 448 kts 299°
2026-04-22 16:18 8.59959 -81.22944 36056 ft 448 kts 299°
2026-04-22 16:19 8.63102 -81.28380 36060 ft 447 kts 299°
2026-04-22 16:19 8.66251 -81.33811 36060 ft 447 kts 299°
2026-04-22 16:20 8.69387 -81.39231 36062 ft 446 kts 299°
2026-04-22 16:20 8.72492 -81.44622 36066 ft 446 kts 299°
2026-04-22 16:21 8.75612 -81.50043 36064 ft 446 kts 298°
2026-04-22 16:21 8.78236 -81.54595 36069 ft 446 kts 299°
2026-04-22 16:22 8.82900 -81.62701 36062 ft 446 kts 299°
2026-04-22 16:23 8.87584 -81.70839 36055 ft 446 kts 298°
2026-04-22 16:23 8.90687 -81.76240 36056 ft 446 kts 298°
2026-04-22 16:24 8.95387 -81.84385 36053 ft 447 kts 298°
2026-04-22 16:25 8.98517 -81.89829 36051 ft 447 kts 297°
2026-04-22 16:25 9.03179 -81.97963 36060 ft 447 kts 298°
2026-04-22 16:26 9.06301 -82.03392 36060 ft 445 kts 298°
2026-04-22 16:26 9.09408 -82.08792 36059 ft 445 kts 298°
2026-04-22 16:27 9.12525 -82.14223 36062 ft 445 kts 298°
2026-04-22 16:27 9.15627 -82.19644 36054 ft 445 kts 298°
2026-04-22 16:28 9.18741 -82.25073 36049 ft 445 kts 298°
2026-04-22 16:28 9.21835 -82.30461 36041 ft 443 kts 298°
2026-04-22 16:29 9.24922 -82.35851 36038 ft 443 kts 298°
2026-04-22 16:29 9.28033 -82.41289 36039 ft 443 kts 298°
2026-04-22 16:30 9.31117 -82.46687 36035 ft 444 kts 298°
2026-04-22 16:30 9.34192 -82.52075 36045 ft 444 kts 298°
2026-04-22 16:31 9.37293 -82.57491 36050 ft 444 kts 298°
2026-04-22 16:31 9.40403 -82.62921 36057 ft 444 kts 298°
2026-04-22 16:32 9.43492 -82.68327 36052 ft 443 kts 298°
2026-04-22 16:32 9.46577 -82.73737 36051 ft 443 kts 298°
2026-04-22 16:33 9.49660 -82.79144 36046 ft 443 kts 298°
2026-04-22 16:33 9.52746 -82.84546 36049 ft 443 kts 298°
2026-04-22 16:34 9.55833 -82.89943 36064 ft 442 kts 298°
2026-04-22 16:34 9.58922 -82.95293 36063 ft 442 kts 298°
2026-04-22 16:35 9.62030 -83.00670 36046 ft 442 kts 298°
2026-04-22 16:35 9.65135 -83.06043 36057 ft 442 kts 298°
2026-04-22 16:36 9.68241 -83.11429 36056 ft 442 kts 298°
2026-04-22 16:36 9.71337 -83.16808 36071 ft 441 kts 298°
2026-04-22 16:37 9.74432 -83.22182 36077 ft 441 kts 298°
2026-04-22 16:37 9.77529 -83.27557 36067 ft 441 kts 297°
2026-04-22 16:38 9.80620 -83.32925 36079 ft 440 kts 297°
2026-04-22 16:38 9.83700 -83.38288 36084 ft 440 kts 297°
2026-04-22 16:39 9.86761 -83.43612 36087 ft 440 kts 297°
2026-04-22 16:39 9.89840 -83.48972 36103 ft 439 kts 297°
2026-04-22 16:40 9.92909 -83.54328 36072 ft 439 kts 297°
2026-04-22 16:41 9.97519 -83.62357 36083 ft 439 kts 297°
2026-04-22 16:41 10.00598 -83.67704 36083 ft 439 kts 297°
2026-04-22 16:42 10.03678 -83.73064 36083 ft 439 kts 297°
2026-04-22 16:42 10.06730 -83.78398 36086 ft 439 kts 297°
2026-04-22 16:43 10.09799 -83.83756 36079 ft 439 kts 297°
2026-04-22 16:43 10.12879 -83.89140 36093 ft 439 kts 297°
2026-04-22 16:44 10.15945 -83.94483 36111 ft 439 kts 297°
2026-04-22 16:44 10.19016 -83.99861 36118 ft 439 kts 297°
2026-04-22 16:45 10.22053 -84.05193 36132 ft 439 kts 297°
2026-04-22 16:45 10.23591 -84.07889 36305 ft 441 kts 297°
2026-04-22 16:45 10.25129 -84.10581 36536 ft 441 kts 297°
2026-04-22 16:45 10.26669 -84.13273 36775 ft 441 kts 297°
2026-04-22 16:46 10.28210 -84.15967 37011 ft 441 kts 297°
2026-04-22 16:46 10.29749 -84.18652 37239 ft 440 kts 297°
2026-04-22 16:46 10.31289 -84.21340 37475 ft 440 kts 297°
2026-04-22 16:46 10.32821 -84.24019 37690 ft 439 kts 297°
2026-04-22 16:47 10.34351 -84.26700 37892 ft 439 kts 297°
2026-04-22 16:47 10.35881 -84.29384 38041 ft 439 kts 297°
2026-04-22 16:47 10.36894 -84.31161 38062 ft 438 kts 297°
2026-04-22 16:48 10.40460 -84.37411 38053 ft 437 kts 297°
2026-04-22 16:48 10.43499 -84.42750 38052 ft 436 kts 296°
2026-04-22 16:49 10.46534 -84.48090 38050 ft 437 kts 297°
2026-04-22 16:49 10.49579 -84.53434 38053 ft 437 kts 297°
2026-04-22 16:50 10.52622 -84.58784 38058 ft 437 kts 296°
2026-04-22 16:50 10.55661 -84.64139 38064 ft 437 kts 296°
2026-04-22 16:51 10.58695 -84.69482 38055 ft 437 kts 297°
2026-04-22 16:51 10.61739 -84.74834 38047 ft 438 kts 297°
2026-04-22 16:52 10.64791 -84.80193 38045 ft 438 kts 297°
2026-04-22 16:52 10.67843 -84.85562 38048 ft 439 kts 297°
2026-04-22 16:53 10.70896 -84.90940 38043 ft 439 kts 297°
2026-04-22 16:53 10.73931 -84.96290 38048 ft 439 kts 297°
2026-04-22 16:54 10.76993 -85.01691 38055 ft 439 kts 297°
2026-04-22 16:54 10.80030 -85.07061 38044 ft 440 kts 295°
2026-04-22 16:55 10.83084 -85.12454 38048 ft 440 kts 295°
2026-04-22 16:55 10.86144 -85.17860 38048 ft 441 kts 296°
2026-04-22 16:56 10.89195 -85.23271 38049 ft 441 kts 296°
2026-04-22 16:56 10.92253 -85.28684 38046 ft 442 kts 296°
2026-04-22 16:57 10.95326 -85.34100 38060 ft 442 kts 295°
2026-04-22 16:57 10.98389 -85.39517 38049 ft 442 kts 297°
2026-04-22 16:58 11.00927 -85.44029 38045 ft 442 kts 297°
2026-04-22 16:58 11.04503 -85.50380 38048 ft 442 kts 297°
2026-04-22 16:59 11.07579 -85.55829 38049 ft 443 kts 297°
2026-04-22 16:59 11.10624 -85.61232 38042 ft 443 kts 297°
2026-04-22 17:00 11.13688 -85.66668 38048 ft 443 kts 297°
2026-04-22 17:00 11.18284 -85.74831 38039 ft 443 kts 297°
2026-04-22 17:01 11.21340 -85.80266 38024 ft 443 kts 297°
2026-04-22 17:01 11.24414 -85.85713 38029 ft 443 kts 297°
2026-04-22 17:02 11.27486 -85.91157 38026 ft 443 kts 297°
2026-04-22 17:02 11.30551 -85.96581 38042 ft 441 kts 297°
2026-04-22 17:03 11.33087 -86.01079 38049 ft 439 kts 297°
2026-04-22 17:03 11.36613 -86.07350 38038 ft 438 kts 297°
2026-04-22 17:04 11.39153 -86.11857 38032 ft 438 kts 297°
2026-04-22 17:04 11.42187 -86.17237 38037 ft 437 kts 297°
2026-04-22 17:05 11.45215 -86.22615 38039 ft 437 kts 297°
2026-04-22 17:05 11.48213 -86.27947 38041 ft 436 kts 297°
2026-04-22 17:06 11.51224 -86.33317 38038 ft 435 kts 297°
2026-04-22 17:06 11.54232 -86.38669 38035 ft 435 kts 297°
2026-04-22 17:07 11.57242 -86.44026 38034 ft 434 kts 297°
2026-04-22 17:07 11.60240 -86.49375 38026 ft 434 kts 297°
2026-04-22 17:08 11.63235 -86.54725 38021 ft 434 kts 297°
2026-04-22 17:08 11.66229 -86.60079 38029 ft 434 kts 297°
2026-04-22 17:09 11.69226 -86.65411 38031 ft 433 kts 297°
2026-04-22 17:09 11.72214 -86.70739 38027 ft 432 kts 297°
2026-04-22 17:10 11.75195 -86.76066 38023 ft 432 kts 297°
2026-04-22 17:10 11.78166 -86.81384 38019 ft 431 kts 297°
2026-04-22 17:11 11.81134 -86.86704 38018 ft 431 kts 297°
2026-04-22 17:11 11.84105 -86.92017 38018 ft 431 kts 297°
2026-04-22 17:12 11.87073 -86.97337 38013 ft 431 kts 297°
2026-04-22 17:12 11.90037 -87.02660 38014 ft 431 kts 297°
2026-04-22 17:13 11.92998 -87.07976 38011 ft 431 kts 297°
2026-04-22 17:13 11.95967 -87.13297 38017 ft 431 kts 297°
2026-04-22 17:14 11.98919 -87.18588 38019 ft 431 kts 297°
2026-04-22 17:14 12.01892 -87.23926 38019 ft 431 kts 297°
2026-04-22 17:15 12.04851 -87.29250 38028 ft 431 kts 297°
2026-04-22 17:15 12.07812 -87.34574 38026 ft 430 kts 297°
2026-04-22 17:16 12.10775 -87.39891 38021 ft 430 kts 297°
2026-04-22 17:16 12.13734 -87.45208 38025 ft 430 kts 297°
2026-04-22 17:17 12.16686 -87.50534 38019 ft 430 kts 297°
2026-04-22 17:17 12.19628 -87.55862 38023 ft 430 kts 297°
2026-04-22 17:18 12.22556 -87.61155 38025 ft 430 kts 297°
2026-04-22 17:18 12.25510 -87.66479 38024 ft 430 kts 297°
2026-04-22 17:19 12.31416 -87.77135 38018 ft 431 kts 297°
2026-04-22 17:20 12.37318 -87.87806 38022 ft 431 kts 297°
2026-04-22 17:21 12.41757 -87.95825 38019 ft 431 kts 297°
2026-04-22 17:22 12.46185 -88.03833 38016 ft 432 kts 297°
2026-04-22 17:23 12.50605 -88.11859 38015 ft 432 kts 297°
2026-04-22 17:23 12.55037 -88.19899 38015 ft 432 kts 297°
2026-04-22 17:24 12.58012 -88.25299 38014 ft 433 kts 297°
2026-04-22 17:24 12.60955 -88.30652 38018 ft 433 kts 297°
2026-04-22 17:25 12.63908 -88.36022 38021 ft 433 kts 297°
2026-04-22 17:25 12.66842 -88.41366 38021 ft 432 kts 297°
2026-04-22 17:26 12.69791 -88.46733 38024 ft 433 kts 297°
2026-04-22 17:26 12.72747 -88.52106 38018 ft 433 kts 297°
2026-04-22 17:27 12.75774 -88.57451 38015 ft 434 kts 304°
2026-04-22 17:27 12.80029 -88.61834 38015 ft 440 kts 323°
2026-04-22 17:28 12.85382 -88.64937 38011 ft 442 kts 329°
2026-04-22 17:28 12.90694 -88.68113 38012 ft 440 kts 321°
2026-04-22 17:29 12.95617 -88.71864 38016 ft 441 kts 321°
2026-04-22 17:29 13.00545 -88.75609 38017 ft 441 kts 321°
2026-04-22 17:30 13.05478 -88.79353 38019 ft 441 kts 321°
2026-04-22 17:30 13.10422 -88.83097 38001 ft 441 kts 321°
2026-04-22 17:31 13.15354 -88.86847 38016 ft 440 kts 320°
2026-04-22 17:31 13.20243 -88.90564 38023 ft 438 kts 321°
2026-04-22 17:32 13.25133 -88.94281 38028 ft 437 kts 320°
2026-04-22 17:32 13.30012 -88.97996 38025 ft 436 kts 320°
2026-04-22 17:33 13.34913 -89.01725 38025 ft 435 kts 320°
2026-04-22 17:33 13.39746 -89.05404 38048 ft 435 kts 320°
2026-04-22 17:34 13.44305 -89.09432 38129 ft 430 kts 307°
2026-04-22 17:34 13.48071 -89.14194 37969 ft 430 kts 307°
2026-04-22 17:35 13.49959 -89.16576 37468 ft 428 kts 307°
2026-04-22 17:35 13.51835 -89.18935 36983 ft 425 kts 307°
2026-04-22 17:35 13.53702 -89.21286 36489 ft 422 kts 307°
2026-04-22 17:35 13.55549 -89.23615 35996 ft 420 kts 307°
2026-04-22 17:36 13.57388 -89.25936 35500 ft 418 kts 307°
2026-04-22 17:36 13.59219 -89.28251 35000 ft 416 kts 307°
2026-04-22 17:36 13.61037 -89.30555 34492 ft 415 kts 307°
2026-04-22 17:36 13.62849 -89.32852 33962 ft 414 kts 307°
2026-04-22 17:37 13.64662 -89.35149 33447 ft 411 kts 307°
2026-04-22 17:37 13.66454 -89.37421 32954 ft 408 kts 307°
2026-04-22 17:37 13.68237 -89.39681 32467 ft 405 kts 307°
2026-04-22 17:37 13.70010 -89.41925 31975 ft 403 kts 307°
2026-04-22 17:38 13.71773 -89.44155 31493 ft 400 kts 307°
2026-04-22 17:38 13.73521 -89.46370 31030 ft 398 kts 307°
2026-04-22 17:38 13.75264 -89.48576 30556 ft 395 kts 307°
2026-04-22 17:38 13.76992 -89.50760 30087 ft 393 kts 307°
2026-04-22 17:39 13.78707 -89.52931 29643 ft 389 kts 307°
2026-04-22 17:39 13.80401 -89.55078 29221 ft 384 kts 307°
2026-04-22 17:39 13.83730 -89.59302 28379 ft 375 kts 307°
2026-04-22 17:40 13.85366 -89.61382 27963 ft 372 kts 307°
2026-04-22 17:40 13.86984 -89.63443 27554 ft 368 kts 307°
2026-04-22 17:40 13.88587 -89.65481 27143 ft 365 kts 307°
2026-04-22 17:40 13.90179 -89.67502 26724 ft 362 kts 307°
2026-04-22 17:41 13.91766 -89.69514 26291 ft 361 kts 307°
2026-04-22 17:41 13.93339 -89.71515 25900 ft 359 kts 307°
2026-04-22 17:41 13.94908 -89.73510 25455 ft 358 kts 307°
2026-04-22 17:41 13.96472 -89.75500 25022 ft 357 kts 307°
2026-04-22 17:42 13.98033 -89.77487 24567 ft 357 kts 307°
2026-04-22 17:42 13.99580 -89.79457 24118 ft 358 kts 307°
2026-04-22 17:42 14.00637 -89.80803 23816 ft 358 kts 308°
2026-04-22 17:42 14.02711 -89.83445 23153 ft 357 kts 308°
2026-04-22 17:43 14.04272 -89.85430 22709 ft 356 kts 308°
2026-04-22 17:43 14.05822 -89.87407 22262 ft 354 kts 308°
2026-04-22 17:43 14.07363 -89.89379 21845 ft 353 kts 308°
2026-04-22 17:43 14.08898 -89.91344 21414 ft 352 kts 308°
2026-04-22 17:44 14.10430 -89.93303 20980 ft 351 kts 308°
2026-04-22 17:44 14.11960 -89.95262 20549 ft 350 kts 308°
2026-04-22 17:44 14.13483 -89.97214 20118 ft 349 kts 309°
2026-04-22 17:44 14.15004 -89.99158 19697 ft 348 kts 309°
2026-04-22 17:45 14.16011 -90.00446 19408 ft 348 kts 309°
2026-04-22 17:45 14.17531 -90.02389 18850 ft 352 kts 309°
2026-04-22 17:45 14.19081 -90.04369 18263 ft 356 kts 309°
2026-04-22 17:45 14.20632 -90.06354 17794 ft 354 kts 309°
2026-04-22 17:46 14.22168 -90.08321 17409 ft 351 kts 308°
2026-04-22 17:46 14.23694 -90.10275 16982 ft 349 kts 308°
2026-04-22 17:46 14.25211 -90.12221 16564 ft 347 kts 308°
2026-04-22 17:46 14.26715 -90.14151 16150 ft 345 kts 308°
2026-04-22 17:47 14.28217 -90.16076 15742 ft 343 kts 308°
2026-04-22 17:47 14.29708 -90.17988 15369 ft 341 kts 308°
2026-04-22 17:47 14.31190 -90.19889 14979 ft 339 kts 308°
2026-04-22 17:47 14.32658 -90.21772 14616 ft 336 kts 308°
2026-04-22 17:48 14.34125 -90.23656 14216 ft 335 kts 308°
2026-04-22 17:48 14.35580 -90.25525 13797 ft 334 kts 308°
2026-04-22 17:48 14.37024 -90.27382 13557 ft 327 kts 308°
2026-04-22 17:48 14.38422 -90.29176 13430 ft 313 kts 308°
2026-04-22 17:49 14.39743 -90.30870 13308 ft 292 kts 308°
2026-04-22 17:49 14.40977 -90.32450 13149 ft 275 kts 308°
2026-04-22 17:49 14.42156 -90.33963 12779 ft 268 kts 308°
2026-04-22 17:49 14.43312 -90.35451 12313 ft 265 kts 308°
2026-04-22 17:50 14.44462 -90.36932 11844 ft 263 kts 308°
2026-04-22 17:50 14.45603 -90.38402 11351 ft 262 kts 309°
2026-04-22 17:50 14.46744 -90.39875 10829 ft 263 kts 308°
2026-04-22 17:50 14.47891 -90.41354 10517 ft 263 kts 309°
2026-04-22 17:51 14.49035 -90.42827 10235 ft 263 kts 309°
2026-04-22 17:51 14.50166 -90.44285 9840 ft 265 kts 309°
2026-04-22 17:51 14.51285 -90.45788 9471 ft 266 kts 300°
2026-04-22 17:51 14.51784 -90.47645 8750 ft 278 kts 267°
2026-04-22 17:52 14.51202 -90.49535 8033 ft 280 kts 233°
2026-04-22 17:52 14.49704 -90.50747 7437 ft 274 kts 197°
2026-04-22 17:52 14.47868 -90.50896 7257 ft 261 kts 168°
2026-04-22 17:52 14.46138 -90.50531 7201 ft 246 kts 176°
2026-04-22 17:53 14.44549 -90.50940 7103 ft 235 kts 215°
2026-04-22 17:53 14.43636 -90.52241 7007 ft 221 kts 257°
2026-04-22 17:53 14.43707 -90.53740 6944 ft 204 kts 287°
2026-04-22 17:53 14.44341 -90.54968 6843 ft 186 kts 310°
2026-04-22 17:54 14.45289 -90.55783 6781 ft 173 kts 332°
2026-04-22 17:54 14.46395 -90.56188 6708 ft 168 kts 352°
2026-04-22 17:54 14.47543 -90.56185 6633 ft 164 kts 12°
2026-04-22 17:54 14.48622 -90.55865 6616 ft 159 kts 19°
2026-04-22 17:55 14.49672 -90.55529 6440 ft 156 kts 19°
2026-04-22 17:55 14.50707 -90.55197 6253 ft 155 kts 18°
2026-04-22 17:55 14.51735 -90.54867 6058 ft 154 kts 18°
2026-04-22 17:55 14.52759 -90.54538 5860 ft 153 kts 18°
2026-04-22 17:56 14.53761 -90.54216 5631 ft 148 kts 18°
2026-04-22 17:56 14.54733 -90.53904 5407 ft 145 kts 18°
2026-04-22 17:56 14.55691 -90.53596 5212 ft 144 kts 18°
2026-04-22 17:56 14.56639 -90.53291 4994 ft 144 kts 18°
2026-04-22 17:57 14.57587 -90.52983 4882 ft 139 kts 14°
2026-04-22 17:57 14.58384 -90.52726 4888 ft 95 kts 17°
2026-04-22 17:57 14.58818 -90.52588 4893 ft 47 kts 17°
2026-04-22 17:57 14.59099 -90.52500 4911 ft 30 kts 16°
2026-04-22 17:58 14.59204 -90.52512 4915 ft 10 kts 284°
2026-04-22 17:58 14.59157 -90.52551 4910 ft 9 kts 202°
2026-04-22 17:58 14.59094 -90.52572 4902 ft 10 kts 195°
2026-04-22 17:58 14.58989 -90.52604 4897 ft 23 kts 198°
2026-04-22 17:59 14.58825 -90.52658 4898 ft 19 kts 198°
2026-04-22 17:59 14.58786 -90.52706 4896 ft 12 kts 274°
2026-04-22 17:59 14.58867 -90.52780 4898 ft 18 kts 349°
2026-04-22 17:59 14.58961 -90.52761 4898 ft 11 kts 14°
2026-04-22 18:00 14.58987 -90.52776 4899 ft 6 kts 292°
2026-04-22 18:00 14.58999 -90.52823 4903 ft 4 kts 286°
2026-04-22 18:00 14.59006 -90.52845 4897 ft 2 kts 286°
2026-04-22 18:00 14.59009 -90.52855 4901 ft 0 kts 286°